Location: Unspecified
(41.5000°N, 0.0000°E)
Time: 19:19:38
(UTC+00:00)

Tiros 1 despin weight - Visible Passes

Search period start: 07 August 2020 00:00
Search period end: 17 August 2020 00:00
Orbit: 594 x 642 km, 48.2° (Epoch: 07 August)

Date Brightness Start Highest point End Pass type
(mag) Time Alt. Az. Time Alt. Az. Time Alt. Az.
13 Aug ? 04:07:23 10° S 04:10:12 16° SE 04:13:00 10° E visible
14 Aug ? 04:22:22 10° SSW 04:26:23 30° SE 04:30:21 10° ENE visible
15 Aug ? 03:00:52 10° SE 03:01:51 11° SE 03:02:51 10° ESE visible
16 Aug ? 03:16:15 17° SSE 03:17:58 21° SE 03:21:25 10° E visible
